sat.trackr.live / text

‹ back to catalog

TOMORROW-S3

NORAD 62392 · 2024-247R

PAYLOAD ACTIVE UNKNOWN

§ Identity

Operator
Country
US
Launch date
2024-12-21
Launch site
AFWTR
Launch vehicle
Mass (kg)
RCS (m²)

External: N2YO · Heavens-Above · Gunter

§ Orbital elements

Epoch: 2026-05-25T04:06:31.084704Z

Period
94.20 min
Inclination
45.0012°
Eccentricity
0.0002049
Mean motion
15.28738672 rev/d
Perigee alt
478.2 km
Apogee alt
481.0 km
Semi-major
6,857.7 km
B*
2.3387e-4
RAAN
59.0021°
Arg perigee
204.1988°
Mean anomaly
155.8800°
Rev number
7,943

§ Raw data

TOMORROW-S31 62392U 24247R   26145.17119311  .00006364  00000+0  23387-3 0  99972 62392  45.0012  59.0021 0002049 204.1988 155.8800 15.28738672 79439

JSON: /api/v1/satellites/62392 · /tle

For live sub-satellite position, see the globe view (requires WebGL).

§ Visibility from observer

Set your observer location to see the next 7 days of passes ≥ 10°. The values pass through the URL so the page stays shareable.

No JS? Fill the form by hand. The geolocation button needs JavaScript.